�������l�o���
Date,Time,MP-1(��Sv/h),MP-2(��Sv/h),MP-3(��Sv/h),MP-4(��Sv/h),MP-5(��Sv/h),MP-6(��Sv/h),MP-7(��Sv/h),����,����(m/s),���J
2023/02/21,00:00,0.155,0.140,0.217,0.213,0.214,0.121,0.079,���k��,10.1,��
2023/02/21,00:10,0.156,0.140,0.219,0.214,0.214,0.122,0.079,���k��,3.9,��
2023/02/21,00:20,0.155,0.141,0.218,0.215,0.214,0.123,0.077,���k��,15.1,��
2023/02/21,00:30,0.155,0.140,0.217,0.214,0.214,0.123,0.078,���k��,20.2,��
2023/02/21,00:40,0.155,0.140,0.218,0.213,0.216,0.122,0.079,���k��,20.2,��
2023/02/21,00:50,0.155,0.141,0.218,0.212,0.214,0.122,0.078,-,CALM,��
2023/02/21,01:00,0.154,0.139,0.218,0.213,0.214,0.122,0.079,�k��,17.6,��
2023/02/21,01:10,0.154,0.141,0.218,0.214,0.215,0.123,0.078,�k��,16.9,��
2023/02/21,01:20,0.155,0.141,0.219,0.214,0.214,0.123,0.078,�k��,14.8,��
2023/02/21,01:30,0.156,0.141,0.218,0.215,0.214,0.123,0.078,�k��,13.1,��
2023/02/21,01:40,0.156,0.140,0.218,0.214,0.215,0.123,0.079,�k��,10.7,��
2023/02/21,01:50,0.157,0.140,0.218,0.214,0.214,0.123,0.078,�k��,8.5,��
2023/02/21,02:00,0.156,0.140,0.219,0.214,0.214,0.122,0.079,�k��,6.3,��
2023/02/21,02:10,0.156,0.141,0.218,0.214,0.215,0.123,0.078,�k��,5.1,��
2023/02/21,02:20,0.157,0.141,0.218,0.213,0.213,0.123,0.078,�k��,4.7,��
2023/02/21,02:30,0.156,0.140,0.218,0.214,0.213,0.122,0.078,�k��,4.9,��
2023/02/21,02:40,0.156,0.140,0.218,0.214,0.213,0.122,0.078,�k��,6.0,��
2023/02/21,02:50,0.155,0.140,0.218,0.213,0.213,0.122,0.078,�k��,7.3,��
2023/02/21,03:00,0.155,0.139,0.218,0.213,0.214,0.123,0.078,�k��,7.7,��
2023/02/21,03:10,0.155,0.140,0.218,0.213,0.214,0.123,0.080,�k��,7.6,��
2023/02/21,03:20,0.155,0.140,0.217,0.214,0.213,0.123,0.079,���k��,10.1,��
2023/02/21,03:30,0.156,0.141,0.218,0.214,0.214,0.122,0.079,�k��,9.5,��
2023/02/21,03:40,0.155,0.139,0.218,0.213,0.213,0.123,0.077,�k��,8.1,��
2023/02/21,03:50,0.155,0.141,0.218,0.214,0.213,0.122,0.078,�k��,7.3,��
2023/02/21,04:00,0.156,0.140,0.216,0.213,0.213,0.122,0.078,�k��,6.7,��
2023/02/21,04:10,0.155,0.140,0.219,0.213,0.213,0.123,0.079,�k��,6.5,��
2023/02/21,04:20,0.154,0.140,0.218,0.214,0.213,0.123,0.078,�k��,6.8,��
2023/02/21,04:30,0.155,0.140,0.218,0.213,0.213,0.122,0.078,�k��,6.0,��
2023/02/21,04:40,0.155,0.140,0.217,0.213,0.213,0.122,0.078,���k��,5.1,��
2023/02/21,04:50,0.155,0.140,0.217,0.213,0.213,0.122,0.077,�k��,4.0,��
2023/02/21,05:00,0.155,0.139,0.218,0.213,0.214,0.122,0.078,�k��,4.3,��
2023/02/21,05:10,0.156,0.141,0.217,0.213,0.214,0.122,0.078,�k��,7.0,��
2023/02/21,05:20,0.155,0.141,0.217,0.214,0.214,0.122,0.078,�k��,7.9,��
2023/02/21,05:30,0.155,0.139,0.217,0.214,0.213,0.122,0.079,���k��,9.8,��
2023/02/21,05:40,0.155,0.140,0.217,0.214,0.214,0.121,0.079,�k��,10.1,��
2023/02/21,05:50,0.155,0.140,0.218,0.212,0.213,0.122,0.078,�k��,9.8,��
2023/02/21,06:00,0.156,0.140,0.218,0.214,0.214,0.122,0.078,�k��,9.2,��
2023/02/21,06:10,0.155,0.141,0.218,0.213,0.214,0.122,0.079,�k��,9.0,��
2023/02/21,06:20,0.154,0.140,0.218,0.213,0.214,0.122,0.078,�k��,8.1,��
2023/02/21,06:30,0.156,0.139,0.218,0.213,0.213,0.122,0.079,���k��,8.4,��
2023/02/21,06:40,0.156,0.140,0.217,0.213,0.213,0.122,0.079,���k��,8.6,��
2023/02/21,06:50,0.156,0.141,0.218,0.214,0.213,0.122,0.078,���k��,7.6,��
2023/02/21,07:00,0.155,0.140,0.216,0.214,0.212,0.122,0.079,�k��,7.8,��
2023/02/21,07:10,0.154,0.139,0.217,0.213,0.213,0.121,0.078,�k��,6.8,��
2023/02/21,07:20,0.156,0.139,0.217,0.213,0.213,0.121,0.079,���k��,7.0,��
2023/02/21,07:30,0.155,0.140,0.217,0.214,0.213,0.122,0.078,���k��,5.8,��
2023/02/21,07:40,0.155,0.140,0.217,0.212,0.213,0.121,0.079,���k��,5.6,��
2023/02/21,07:50,0.154,0.139,0.217,0.213,0.214,0.123,0.078,���k��,5.2,��
2023/02/21,08:00,0.156,0.140,0.217,0.213,0.213,0.122,0.078,���k��,5.2,��
2023/02/21,08:10,0.155,0.141,0.217,0.212,0.213,0.123,0.078,�k��,5.0,��
2023/02/21,08:20,0.154,0.140,0.218,0.213,0.213,0.122,0.077,�k��,4.6,��
2023/02/21,08:30,0.155,0.140,0.218,0.213,0.213,0.122,0.077,�k��,5.1,��
2023/02/21,08:40,0.155,0.139,0.217,0.213,0.212,0.123,0.078,�k��,6.0,��
2023/02/21,08:50,0.155,0.141,0.217,0.212,0.213,0.121,0.077,�k��,9.2,��
2023/02/21,09:00,0.155,0.140,0.217,0.214,0.213,0.122,0.078,�k��,7.3,��
2023/02/21,09:10,0.154,0.141,0.216,0.214,0.214,0.122,0.078,�k��,5.8,��
2023/02/21,09:20,0.155,0.140,0.216,0.212,0.213,0.123,0.077,�k��,5.3,��
2023/02/21,09:30,0.155,0.139,0.217,0.214,0.214,0.122,0.078,�k�k��,4.4,��
2023/02/21,09:40,0.155,0.140,0.217,0.213,0.214,0.122,0.078,�k��,4.0,��
2023/02/21,09:50,0.155,0.139,0.218,0.213,0.213,0.121,0.078,�k�k��,6.2,��
2023/02/21,10:00,0.154,0.140,0.216,0.214,0.213,0.122,0.078,�k��,6.0,�L
2023/02/21,10:10,0.154,0.140,0.216,0.213,0.214,0.123,0.078,�k��,4.7,�L
2023/02/21,10:20,0.156,0.141,0.218,0.213,0.214,0.122,0.078,�k��,3.7,�L
2023/02/21,10:30,0.155,0.140,0.217,0.214,0.214,0.123,0.079,�k��,3.3,��
2023/02/21,10:40,0.155,0.140,0.219,0.213,0.213,0.123,0.079,�k,3.0,��
2023/02/21,10:50,0.155,0.140,0.218,0.214,0.213,0.123,0.078,�k,4.0,�L
2023/02/21,11:00,0.155,0.140,0.217,0.214,0.215,0.123,0.079,�k,3.9,�L
2023/02/21,11:10,0.154,0.140,0.217,0.214,0.213,0.123,0.078,�k,2.1,�L
2023/02/21,11:20,0.154,0.140,0.217,0.213,0.214,0.123,0.078,�k�k��,3.4,�L
2023/02/21,11:30,0.155,0.140,0.218,0.213,0.214,0.123,0.079,�k,3.6,�L
2023/02/21,11:40,0.156,0.141,0.218,0.214,0.214,0.123,0.079,�k�k��,4.5,�L
2023/02/21,11:50,0.155,0.140,0.219,0.215,0.215,0.124,0.080,�k��,5.5,�L
2023/02/21,12:00,0.155,0.141,0.220,0.216,0.217,0.125,0.081,�k��,5.8,�L
2023/02/21,12:10,0.156,0.142,0.220,0.217,0.217,0.126,0.082,���k��,5.6,�L
2023/02/21,12:20,0.156,0.142,0.219,0.216,0.216,0.125,0.081,���k��,4.4,�L
2023/02/21,12:30,0.156,0.141,0.218,0.216,0.215,0.126,0.081,���k��,3.5,��
2023/02/21,12:40,0.156,0.141,0.219,0.216,0.215,0.124,0.081,�k��,5.8,�L
2023/02/21,12:50,0.156,0.140,0.217,0.214,0.215,0.124,0.080,�k��,8.5,�L
2023/02/21,13:00,0.156,0.140,0.218,0.215,0.215,0.124,0.080,�k��,7.7,�L
2023/02/21,13:10,0.156,0.140,0.219,0.215,0.215,0.124,0.080,���k��,6.1,��
2023/02/21,13:20,0.156,0.141,0.217,0.216,0.215,0.123,0.080,���k��,5.2,�L
2023/02/21,13:30,0.155,0.141,0.217,0.215,0.215,0.125,0.079,��,5.4,�L
2023/02/21,13:40,0.155,0.141,0.218,0.214,0.215,0.124,0.079,���k��,4.8,��
2023/02/21,13:50,0.157,0.141,0.219,0.214,0.215,0.124,0.079,���k��,4.6,��
2023/02/21,14:00,0.154,0.140,0.218,0.214,0.215,0.124,0.079,�k��,4.1,��
2023/02/21,14:10,0.155,0.141,0.217,0.215,0.214,0.124,0.079,�k��,5.1,�L
2023/02/21,14:20,0.156,0.141,0.217,0.214,0.215,0.124,0.079,�k��,7.1,�L
2023/02/21,14:30,0.156,0.141,0.218,0.215,0.214,0.124,0.079,�k�k��,5.9,�L
2023/02/21,14:40,0.154,0.141,0.217,0.213,0.215,0.123,0.079,�k�k��,6.3,�L
2023/02/21,14:50,0.157,0.142,0.219,0.215,0.216,0.124,0.080,�k�k��,8.1,�L
2023/02/21,15:00,0.157,0.142,0.219,0.216,0.217,0.125,0.080,���k��,7.1,�L
2023/02/21,15:10,0.158,0.143,0.220,0.217,0.219,0.127,0.081,���k��,5.7,�L
2023/02/21,15:20,0.158,0.144,0.220,0.218,0.219,0.127,0.082,���k��,6.1,�L
2023/02/21,15:30,0.158,0.144,0.221,0.218,0.219,0.129,0.083,���k��,7.1,�L
2023/02/21,15:40,0.161,0.146,0.223,0.220,0.219,0.129,0.083,�k��,6.7,�L
2023/02/21,15:50,0.160,0.144,0.222,0.219,0.219,0.130,0.084,���k��,8.6,�L
2023/02/21,16:00,0.160,0.145,0.223,0.220,0.218,0.129,0.084,�k��,7.1,�L
2023/02/21,16:10,0.160,0.146,0.222,0.220,0.217,0.128,0.084,�k��,7.9,�L
2023/02/21,16:20,0.159,0.145,0.222,0.217,0.218,0.128,0.083,�k��,5.9,�L
2023/02/21,16:30,0.159,0.144,0.220,0.217,0.218,0.127,0.082,�k�k��,4.4,�L
2023/02/21,16:40,0.158,0.143,0.221,0.216,0.215,0.126,0.081,�k�k��,3.1,��
2023/02/21,16:50,0.158,0.142,0.219,0.215,0.214,0.126,0.080,�k�k��,3.8,��
2023/02/21,17:00,0.158,0.143,0.218,0.215,0.214,0.125,0.081,�k,3.1,��
2023/02/21,17:10,0.156,0.142,0.219,0.215,0.215,0.125,0.080,�k�k��,2.8,��
2023/02/21,17:20,0.157,0.140,0.218,0.213,0.214,0.124,0.079,�k�k��,2.4,��
2023/02/21,17:30,0.156,0.142,0.218,0.214,0.213,0.123,0.079,�k�k��,1.9,��
2023/02/21,17:40,0.156,0.141,0.218,0.213,0.212,0.123,0.079,�k�k��,2.3,��
2023/02/21,17:50,0.156,0.141,0.218,0.214,0.214,0.123,0.079,�k�k��,2.4,��
2023/02/21,18:00,0.155,0.141,0.217,0.213,0.213,0.123,0.079,�k�k��,2.7,��
2023/02/21,18:10,0.154,0.140,0.217,0.213,0.213,0.122,0.079,�k��,2.1,��
2023/02/21,18:20,0.155,0.140,0.217,0.213,0.212,0.122,0.078,�k��,1.2,��
2023/02/21,18:30,0.154,0.140,0.217,0.212,0.213,0.122,0.078,�k,1.7,��
2023/02/21,18:40,0.155,0.141,0.217,0.212,0.213,0.122,0.079,�k�k��,1.9,��
2023/02/21,18:50,0.155,0.139,0.217,0.213,0.212,0.122,0.078,�k,3.3,��
2023/02/21,19:00,0.154,0.140,0.217,0.213,0.212,0.122,0.078,�k�k��,3.7,��
2023/02/21,19:10,0.154,0.140,0.216,0.213,0.212,0.123,0.078,�k�k��,3.0,��
2023/02/21,19:20,0.155,0.140,0.216,0.212,0.212,0.121,0.079,�k�k��,3.5,��
2023/02/21,19:30,0.154,0.140,0.218,0.213,0.212,0.122,0.078,�k�k��,3.5,��
2023/02/21,19:40,0.155,0.140,0.217,0.213,0.213,0.121,0.078,�k�k��,3.8,��
2023/02/21,19:50,0.154,0.140,0.218,0.212,0.212,0.122,0.079,�k��,3.5,��
2023/02/21,20:00,0.155,0.140,0.217,0.212,0.214,0.122,0.078,�k�k��,3.8,��
2023/02/21,20:10,0.155,0.140,0.217,0.211,0.212,0.122,0.079,�k��,4.1,��
2023/02/21,20:20,0.155,0.141,0.217,0.213,0.212,0.123,0.079,�k��,4.1,��
2023/02/21,20:30,0.155,0.140,0.217,0.212,0.212,0.123,0.078,�k��,4.7,��
2023/02/21,20:40,0.154,0.140,0.216,0.213,0.213,0.123,0.079,�k��,4.1,��
2023/02/21,20:50,0.155,0.140,0.217,0.213,0.212,0.122,0.078,���k��,3.4,��
2023/02/21,21:00,0.155,0.139,0.217,0.213,0.213,0.122,0.078,���k��,2.9,��
2023/02/21,21:10,0.154,0.139,0.217,0.214,0.213,0.122,0.078,���k��,2.3,��
2023/02/21,21:20,0.154,0.140,0.217,0.212,0.213,0.122,0.078,���k��,1.6,��
2023/02/21,21:30,0.154,0.140,0.217,0.212,0.213,0.122,0.079,���k��,1.9,��
2023/02/21,21:40,0.155,0.140,0.217,0.211,0.212,0.122,0.078,���k��,2.7,��
2023/02/21,21:50,0.155,0.141,0.217,0.213,0.213,0.123,0.078,���k��,1.9,��
2023/02/21,22:00,0.155,0.140,0.217,0.212,0.212,0.122,0.079,���k��,2.0,��
2023/02/21,22:10,0.153,0.140,0.217,0.212,0.212,0.122,0.078,���k��,3.2,��
2023/02/21,22:20,0.154,0.140,0.216,0.212,0.213,0.123,0.078,���k��,3.1,��
2023/02/21,22:30,0.156,0.141,0.218,0.213,0.212,0.122,0.078,���k��,3.0,��
2023/02/21,22:40,0.155,0.139,0.217,0.211,0.212,0.122,0.079,���k��,3.7,��
2023/02/21,22:50,0.155,0.140,0.216,0.212,0.212,0.122,0.078,���k��,2.9,��
2023/02/21,23:00,0.155,0.138,0.217,0.212,0.212,0.122,0.079,���k��,2.9,��
2023/02/21,23:10,0.155,0.138,0.217,0.212,0.213,0.122,0.079,���k��,2.6,��
2023/02/21,23:20,0.155,0.140,0.217,0.212,0.213,0.123,0.079,���k��,3.0,��
2023/02/21,23:30,0.156,0.140,0.217,0.213,0.213,0.123,0.078,��,3.6,��
2023/02/21,23:40,0.156,0.140,0.216,0.213,0.212,0.122,0.078,���k��,3.7,��
2023/02/21,23:50,0.154,0.140,0.217,0.213,0.213,0.122,0.078,���k��,4.1,��
